TimeCDT,TemperatureF,Dew PointF,Humidity,Sea Level PressureIn,VisibilityMPH,Wind Direction,Wind SpeedMPH,Gust SpeedMPH,PrecipitationIn,Events,Conditions,WindDirDegrees,DateUTC
12:15 AM,41.0,26.6,57,30.18,10.0,ENE,9.2,-,N/A,,Clear,60,2013-05-10 05:15:00
12:35 AM,41.0,26.6,57,30.18,10.0,ENE,10.4,-,N/A,,Clear,60,2013-05-10 05:35:00
12:55 AM,41.0,26.6,57,30.18,10.0,NE,10.4,-,N/A,,Clear,50,2013-05-10 05:55:00
1:15 AM,39.2,26.6,61,30.18,10.0,ENE,9.2,-,N/A,,Clear,60,2013-05-10 06:15:00
1:55 AM,37.4,26.6,65,30.16,10.0,ENE,8.1,-,N/A,,Clear,60,2013-05-10 06:55:00
2:15 AM,37.4,26.6,65,30.16,10.0,ENE,8.1,-,N/A,,Clear,60,2013-05-10 07:15:00
2:35 AM,35.6,26.6,70,30.16,10.0,Calm,Calm,-,N/A,,Clear,0,2013-05-10 07:35:00
2:55 AM,35.6,26.6,70,30.15,10.0,Calm,Calm,-,N/A,,Clear,0,2013-05-10 07:55:00
3:15 AM,35.6,26.6,70,30.14,10.0,Calm,Calm,-,N/A,,Clear,0,2013-05-10 08:15:00
3:35 AM,32.0,26.6,80,30.13,10.0,SE,5.8,-,N/A,,Clear,140,2013-05-10 08:35:00
3:55 AM,32.0,26.6,80,30.13,10.0,SSE,4.6,-,N/A,,Clear,150,2013-05-10 08:55:00
4:15 AM,32.0,26.6,80,30.12,10.0,Calm,Calm,-,N/A,,Clear,0,2013-05-10 09:15:00
4:35 AM,32.0,26.6,80,30.12,10.0,Calm,Calm,-,N/A,,Clear,0,2013-05-10 09:35:00
4:55 AM,32.0,26.6,80,30.11,10.0,Calm,Calm,-,N/A,,Clear,0,2013-05-10 09:55:00
5:15 AM,30.2,26.6,86,30.11,10.0,South,3.5,-,N/A,,Clear,170,2013-05-10 10:15:00
5:35 AM,30.2,26.6,86,30.10,10.0,South,5.8,-,N/A,,Clear,180,2013-05-10 10:35:00
5:55 AM,32.0,28.4,87,30.10,10.0,South,5.8,-,N/A,,Clear,180,2013-05-10 10:55:00
6:15 AM,32.0,28.4,87,30.10,10.0,South,6.9,-,N/A,,Clear,190,2013-05-10 11:15:00
6:35 AM,32.0,28.4,87,30.09,10.0,SSW,4.6,-,N/A,,Clear,200,2013-05-10 11:35:00
6:55 AM,33.8,32.0,93,30.09,10.0,South,5.8,-,N/A,,Clear,180,2013-05-10 11:55:00
7:15 AM,37.4,33.8,87,30.08,10.0,South,9.2,-,N/A,,Clear,190,2013-05-10 12:15:00
7:35 AM,41.0,37.4,87,30.08,10.0,SSW,11.5,-,N/A,,Clear,200,2013-05-10 12:35:00
7:55 AM,44.6,41.0,87,30.08,10.0,SSW,11.5,-,N/A,,Clear,200,2013-05-10 12:55:00
8:15 AM,46.4,42.8,87,30.07,10.0,SSW,12.7,-,N/A,,Clear,210,2013-05-10 13:15:00
8:35 AM,50.0,44.6,82,30.07,10.0,SSW,17.3,23.0,N/A,,Clear,210,2013-05-10 13:35:00
8:55 AM,50.0,44.6,82,30.06,10.0,SSW,17.3,26.5,N/A,,Clear,210,2013-05-10 13:55:00
9:15 AM,51.8,44.6,76,30.06,10.0,SW,19.6,24.2,N/A,,Clear,220,2013-05-10 14:15:00
9:35 AM,53.6,46.4,77,30.06,10.0,SW,16.1,24.2,N/A,,Clear,220,2013-05-10 14:35:00
9:55 AM,55.4,46.4,72,30.05,10.0,SSW,17.3,-,N/A,,Clear,210,2013-05-10 14:55:00
10:15 AM,57.2,46.4,67,30.05,10.0,SSW,17.3,24.2,N/A,,Clear,210,2013-05-10 15:15:00
10:35 AM,59.0,44.6,59,30.04,10.0,SSW,16.1,25.3,N/A,,Clear,210,2013-05-10 15:35:00
10:55 AM,59.0,39.2,48,30.03,10.0,WSW,17.3,24.2,N/A,,Clear,240,2013-05-10 15:55:00
11:15 AM,60.8,32.0,34,30.01,10.0,SW,15.0,21.9,N/A,,Clear,220,2013-05-10 16:15:00
11:35 AM,62.6,32.0,32,29.99,10.0,SW,16.1,23.0,N/A,,Scattered Clouds,230,2013-05-10 16:35:00
11:55 AM,64.4,33.8,32,29.98,10.0,SW,19.6,26.5,N/A,,Partly Cloudy,230,2013-05-10 16:55:00
12:15 PM,64.4,32.0,30,29.97,10.0,SW,17.3,27.6,N/A,,Clear,220,2013-05-10 17:15:00
12:35 PM,66.2,32.0,28,29.96,10.0,SW,21.9,27.6,N/A,,Clear,230,2013-05-10 17:35:00
12:55 PM,66.2,32.0,28,29.95,10.0,WSW,19.6,29.9,N/A,,Clear,240,2013-05-10 17:55:00
1:15 PM,68.0,32.0,26,29.94,10.0,WSW,20.7,26.5,N/A,,Clear,240,2013-05-10 18:15:00
1:35 PM,68.0,33.8,28,29.93,10.0,West,26.5,33.4,N/A,,Clear,270,2013-05-10 18:35:00
1:55 PM,66.2,35.6,32,29.93,10.0,WNW,27.6,34.5,N/A,,Partly Cloudy,300,2013-05-10 18:55:00
2:15 PM,68.0,35.6,30,29.93,10.0,WNW,27.6,33.4,N/A,,Partly Cloudy,290,2013-05-10 19:15:00
2:35 PM,66.2,35.6,32,29.93,10.0,NW,27.6,34.5,N/A,,Scattered Clouds,310,2013-05-10 19:35:00
2:55 PM,68.0,35.6,30,29.93,10.0,NW,32.2,36.8,N/A,,Partly Cloudy,310,2013-05-10 19:55:00
3:35 PM,64.4,35.6,34,29.94,10.0,NNW,27.6,35.7,N/A,,Clear,340,2013-05-10 20:35:00
3:55 PM,62.6,35.6,37,29.94,10.0,NNW,27.6,36.8,N/A,,Clear,330,2013-05-10 20:55:00
4:15 PM,62.6,39.2,42,29.95,10.0,NNW,28.8,44.9,N/A,,Clear,340,2013-05-10 21:15:00
4:35 PM,60.8,37.4,42,29.96,10.0,NNW,33.4,43.7,N/A,,Clear,340,2013-05-10 21:35:00
4:55 PM,59.0,37.4,45,29.97,10.0,North,34.5,41.4,N/A,,Clear,350,2013-05-10 21:55:00
5:15 PM,59.0,39.2,48,29.99,10.0,North,31.1,43.7,N/A,,Partly Cloudy,360,2013-05-10 22:15:00
5:35 PM,57.2,39.2,51,30.00,10.0,North,31.1,39.1,N/A,,Partly Cloudy,350,2013-05-10 22:35:00
5:55 PM,55.4,37.4,51,30.01,10.0,North,29.9,43.7,N/A,,Clear,360,2013-05-10 22:55:00
6:15 PM,55.4,35.6,47,30.02,10.0,North,29.9,39.1,N/A,,Clear,10,2013-05-10 23:15:00
6:35 PM,55.4,32.0,41,30.02,10.0,North,27.6,36.8,N/A,,Clear,360,2013-05-10 23:35:00
6:55 PM,55.4,32.0,41,30.03,10.0,North,25.3,33.4,N/A,,Clear,360,2013-05-10 23:55:00
7:15 PM,53.6,32.0,44,30.04,10.0,North,24.2,32.2,N/A,,Clear,360,2013-05-11 00:15:00
7:35 PM,53.6,32.0,44,30.05,10.0,North,20.7,31.1,N/A,,Clear,10,2013-05-11 00:35:00
7:55 PM,51.8,30.2,44,30.05,10.0,North,23.0,26.5,N/A,,Clear,10,2013-05-11 00:55:00
8:15 PM,50.0,28.4,43,30.06,10.0,NNE,21.9,26.5,N/A,,Clear,20,2013-05-11 01:15:00
8:35 PM,48.2,26.6,43,30.07,10.0,North,15.0,-,N/A,,Clear,10,2013-05-11 01:35:00
8:55 PM,48.2,32.0,54,30.08,10.0,NE,15.0,-,N/A,,Clear,40,2013-05-11 01:55:00
9:15 PM,46.4,32.0,57,30.10,10.0,NE,12.7,-,N/A,,Clear,40,2013-05-11 02:15:00
9:35 PM,44.6,32.0,61,30.11,10.0,NNE,11.5,17.3,N/A,,Clear,30,2013-05-11 02:35:00
9:55 PM,42.8,30.2,61,30.12,10.0,NNE,10.4,-,N/A,,Clear,30,2013-05-11 02:55:00
10:15 PM,41.0,30.2,65,30.14,10.0,NNE,6.9,-,N/A,,Clear,30,2013-05-11 03:15:00
10:35 PM,39.2,32.0,75,30.14,10.0,North,6.9,-,N/A,,Scattered Clouds,360,2013-05-11 03:35:00
10:55 PM,39.2,33.8,81,30.15,10.0,North,5.8,-,N/A,,Scattered Clouds,350,2013-05-11 03:55:00
11:15 PM,39.2,32.0,75,30.15,10.0,NNW,6.9,-,N/A,,Scattered Clouds,330,2013-05-11 04:15:00
11:35 PM,37.4,28.4,70,30.16,10.0,NW,6.9,-,N/A,,Partly Cloudy,320,2013-05-11 04:35:00
11:55 PM,35.6,30.2,81,30.17,10.0,NW,8.1,-,N/A,,Clear,320,2013-05-11 04:55:00